Medicine Lodge, KS

11:37 AM CDT on June 27, 2017 (GMT -0500)
Medicine Lodge

Weather History for KP28 - November, 2012

Change the Weather History Date:

Thursday, November 8, 2012

  Actual Average Record
Temperature  
Mean Temperature 62 °F 49 °F  
Max Temperature 79 °F 62 °F 91 °F (2006)
Min Temperature 44 °F 36 °F 18 °F (1991)
Degree Days  
Heating Degree Days 3 16  
Month to date heating degree days 83 116  
Since 1 July heating degree days 364 385  
Cooling Degree Days 0 0  
Month to date cooling degree days 0 0  
Year to date cooling degree days 2256 1769  
Growing Degree Days 12 (Base 50)    
Moisture  
Dew Point 39 °F    
Average Humidity 46    
Maximum Humidity 65    
Minimum Humidity 27    
Precipitation  
Precipitation 0.00 in 0.04 in 1.82 in (1981)
Month to date precipitation 0.00 0.41  
Year to date precipitation 16.94 25.70  
Snow  
Snow 0.00 in 0.00 in - ()
Month to date snowfall 0.0 0.0  
Since 1 July snowfall 0.0 0.0  
Since 1 September snowfall 0.0 0.0  
Snow Depth 0.00 in    
Sea Level Pressure  
Sea Level Pressure 29.84 in    
Wind  
Wind Speed 11 mph (SSE)    
Max Wind Speed 21 mph    
Max Gust Speed 29 mph    
T = Trace of Precipitation, MM = Missing Value Source: NWS Daily Summary

Daily Weather History Graph

Daily Weather History Graph

Search for Another Location

Airport or City:

Trip Planner

Search our weather history database for the weather conditions in past years. The results will help you decide how hot, cold, wet, or windy it might be!

Date:

Astronomy

Nov. 08, 2012 Rise Set
Actual Time 7:06 AM CST 5:29 PM CST
Civil Twilight 6:39 AM CST 5:56 PM CST
Nautical Twilight 6:08 AM CST 6:27 PM CST
Astronomical Twilight 5:37 AM CST 6:58 PM CST
Moon 1:10 AM CST (11/8) 2:04 PM CST (11/8)
Length of Visible Light 11h 17m
Length of Day
10h 22m
Waning Crescent, 32% of the Moon is Illuminated
Nov 8
Waning Crescent
Nov 13
New
Nov 20
First Quarter
Nov 28
Full
Dec 6
Last Quarter

Hourly Weather History & Observations

Time (CST) Temp. Windchill Dew Point Humidity Pressure Visibility Wind Dir Wind Speed Gust Speed Precip Events Conditions
12:56 AM 48.9 °F - 27.0 °F 43% 29.98 in - ESE 9.2 mph - N/A   Unknown
1:56 AM 48.0 °F - 28.0 °F 46% 29.96 in - ESE 9.2 mph - N/A   Unknown
2:56 AM 46.9 °F - 28.0 °F 48% 29.95 in - ESE 10.4 mph - N/A   Unknown
3:56 AM 46.9 °F - 28.0 °F 48% 29.92 in - ESE 11.5 mph - N/A   Unknown
4:56 AM 46.0 °F 40.6 °F 28.0 °F 50% 29.90 in - ESE 11.5 mph - N/A   Unknown
5:56 AM 46.0 °F 40.6 °F 28.9 °F 51% 29.89 in - ESE 11.5 mph - N/A   Unknown
6:56 AM 45.0 °F 39.7 °F 28.9 °F 53% 29.89 in - SE 10.4 mph - N/A   Unknown
7:56 AM 46.9 °F - 30.9 °F 54% 29.89 in - SE 12.7 mph - N/A   Unknown
8:56 AM 55.0 °F - 35.1 °F 47% 29.88 in - SSE 10.4 mph 23.0 mph N/A   Unknown
9:56 AM 59.0 °F - 37.9 °F 46% 29.87 in - South 13.8 mph 25.3 mph N/A   Unknown
10:56 AM 64.0 °F - 41.0 °F 43% 29.85 in - South 15.0 mph 23.0 mph N/A   Unknown
11:56 AM 70.0 °F - 44.1 °F 39% 29.82 in - SSW 18.4 mph 25.3 mph N/A   Unknown
12:56 PM 73.9 °F - 42.1 °F 32% 29.79 in - SSW 12.7 mph 24.2 mph N/A   Unknown
1:56 PM 75.9 °F - 42.1 °F 30% 29.76 in - SSW 16.1 mph 20.7 mph N/A   Unknown
2:56 PM 78.1 °F - 41.0 °F 27% 29.75 in - South 16.1 mph - N/A   Unknown
3:56 PM 79.0 °F - 43.0 °F 28% 29.75 in - South 8.1 mph - N/A   Unknown
4:56 PM 73.9 °F - 44.1 °F 34% 29.76 in - South 6.9 mph - N/A   Unknown
5:56 PM 70.0 °F - 45.0 °F 41% 29.78 in - SE 8.1 mph - N/A   Unknown
6:56 PM 66.9 °F - 46.0 °F 47% 29.79 in - SE 6.9 mph - N/A   Unknown
7:56 PM 66.0 °F - 48.0 °F 52% 29.80 in - SE 6.9 mph - N/A   Unknown
8:56 PM 64.9 °F - 50.0 °F 58% 29.78 in - SE 9.2 mph - N/A   Unknown
9:56 PM 62.1 °F - 50.0 °F 65% 29.78 in - SE 8.1 mph - N/A   Unknown
10:56 PM 62.1 °F - 50.0 °F 65% 29.78 in - ESE 8.1 mph - N/A   Unknown
11:56 PM 60.1 °F - 50.0 °F 69% 29.76 in - SE 6.9 mph - N/A   Unknown